Location: Akdamlar
(36.8729°N, 30.5187°E)
Time: 15:02:16
(UTC+00:00)

Cosmos 1603 - Pass Details

Date: 18 September 2020
Orbit: 832 x 858 km, 71.0° (Epoch: 19 October)

Event Time Altitude Azimuth Distance (km) Brightness Sun altitude
Rises 16:42:07 0° 342° (NNW) 3,411 7.3 -9.1°
Reaches altitude 10° 16:44:38 10° 346° (NNW) 2,469 6.4 -9.6°
Maximum altitude 16:50:13 59° 65° (ENE) 963 3.8 -10.7°
Drops below altitude 10° 16:55:44 10° 145° (SE) 2,438 5.7 -11.8°
Enters shadow 16:57:10 - 148° (SSE) 2,980 6.1 -12.1°
